Regional Weather Roundup
Issued by NWS San Angelo, TX

Home | Current Version | Previous Version | Text Only | Print | Product List | Glossary On
Versions: 1 2 3 4 5 6 7 8 9 10 11 12 13 14 15 16 17 18 19 20 21 22 23 24 25 26 27 28 29 30 31 32 33 34 35 36 37 38 39 40 41 42 43 44 45 46 47 48 49 50
000
ASUS44 KSJT 271310
RWRSJT
WEST CENTRAL TEXAS REGIONAL WEATHER ROUNDUP
NATIONAL WEATHER SERVICE SAN ANGELO TX
700 AM CST SAT DEC 27 2014

NOTE: "FAIR" INDICATES FEW OR NO CLOUDS BELOW 12,000 FEET WITH NO
SIGNIFICANT WEATHER AND/OR OBSTRUCTIONS TO VISIBILITY.

TXZ049-054-064>066-071>073-076>078-098-099-113-114-127-128-139-140-
154-155-168>170-271400
...LOCATIONS ACROSS WEST CENTRAL TEXAS...

CITY           SKY/WX    TMP DP  RH WIND       PRES   REMARKS
SAN ANGELO     CLOUDY    42  31  64 NE17      30.15R WCI  34
ABILENE        CLOUDY    35  32  88 N14       30.20R WCI  26
DYESS AFB      MOCLDY    36  32  87 N15       30.20R WCI  26
JUNCTION       CLOUDY    45  33  63 N18G28    30.10R WCI  37
SWEETWATER     CLOUDY    34  34 100 N15G22    30.22R WCI  24
BROWNWOOD      CLOUDY    41  28  60 N22G28    30.17R WCI  31
COLEMAN        LGT RAIN  38  34  84 N23G29    30.16R WCI  28
SONORA         CLOUDY    43  30  61 N21G30    30.14R WCI  34
OZONA          FAIR      41  30  65 N13G21    30.14R WCI  34
BRADY          LGT RAIN  43  34  70 N18       30.12R WCI  34
$$

TEXAS PANHANDLE/OKLAHOMA PANHANDLE

CITY           SKY/WX    TMP DP  RH WIND       PRES   REMARKS
AMARILLO       MOCLDY    20  16  84 N7        30.23R WCI  11
BORGER         PTCLDY    21  15  78 N5        30.26R WCI  15
CANADIAN       CLOUDY    27  20  77 N10       30.26R WCI  17
DALHART        PTCLDY    18  12  77 N7        30.22R WCI   9
DUMAS          CLOUDY    15  12  89 NW6       30.22R WCI   6
GUYMON         NOT AVBL
HEREFORD       PTSUNNY   22  20  91 N7        30.22R WCI  14
PAMPA          MOSUNNY   21  17  85 N10       30.23R WCI  10
PERRYTON       MOCLDY    21  18  85 N9        30.25R WCI  11
$$

SOUTHERN PANHANDLE/SOUTH PLAINS/ROLLING PLAINS

CITY           SKY/WX    TMP DP  RH WIND       PRES   REMARKS
LUBBOCK        FLURRIES  28  25  88 N14       30.21R WCI  17
SNYDER         CLOUDY    33  30  90 N16G24    30.19R WCI  22
CHILDRESS      CLOUDY    31  25  78 N10       30.25R WCI  22
SEMINOLE       LGT SNOW  33  33  99 N6        30.18R WCI  27
$$

PERMIAN BASIN

CITY           SKY/WX    TMP DP  RH WIND       PRES   REMARKS
MIDLAND        CLOUDY    39  33  79 N15       30.16R WCI  31
ODESSA         CLOUDY    39  32  76 NE10      30.16R WCI  32
WINK           LGT RAIN  40  32  73 N12       30.16R WCI  33
$$

FAR WEST/SOUTHWEST MOUNTAINS/TRANS PECOS

CITY           SKY/WX    TMP DP  RH WIND       PRES   REMARKS
ALPINE         PTSUNNY   33  29  86 CALM      30.18R
DRYDEN           N/A     48  31  51 N14G24    30.07R
EL PASO        CLOUDY    35  32  88 CALM      30.13R
FORT STOCKTON  CLOUDY    35  32  88 NW6       30.16R WCI  30
GUADALUPE PASS NOT AVBL
MARFA          CLOUDY    36  28  75 NE14      30.09F WCI  27
PECOS          CLOUDY    40  36  83 NW5       30.19R WCI  37
$$

DALLAS/FORT WORTH METROPLEX

CITY           SKY/WX    TMP DP  RH WIND       PRES   REMARKS
DFW AIRPORT    CLOUDY    42  35  76 N16       30.16R WCI  34
FTW MEACHAM    CLOUDY    42  34  73 N14       30.19R WCI  35
DAL-EXECUTIVE  CLOUDY    44  38  79 N21G26    30.14R WCI  36
GRAND PRAIRIE  NOT AVBL
ADDISON        CLOUDY    41  36  81 N13G25    30.16R WCI  34
MESQUITE       CLOUDY    43  39  87 NW16G28   30.14  WCI  35
LANCASTER      CLOUDY    43  38  85 N18G28    30.14R WCI  34
$$

NORTH CENTRAL TEXAS

CITY           SKY/WX    TMP DP  RH WIND       PRES   REMARKS
SHRMAN/DENISON CLOUDY    39  37  93 N16       30.19R WCI  30
GAINESVILLE    CLOUDY    37  32  82 N17G26    30.21R WCI  27
BRIDGEPORT     LGT RAIN  39  33  78 N18       30.23R WCI  30
DENTON         CLOUDY    40  34  79 N12G22    30.18R WCI  33
WAXAHACHIE     CLOUDY    43  41  93 N25G35    30.13R WCI  33
GRANBURY       CLOUDY    45  35  69 NW9G18    30.22R WCI  40
$$

WESTERN NORTH TEXAS

CITY           SKY/WX    TMP DP  RH WIND       PRES   REMARKS
WICHITA FALLS  LGT SNOW  33  30  88 N15       30.26R FOG     WCI  23
VERNON         CLOUDY    32  29  86 N9        30.28R WCI  25
BRECKENRIDGE   CLOUDY    41  28  60 N17G23    30.22R WCI  32
COMANCHE       CLOUDY    42  33  70 N15G26    30.16S WCI  34
$$

CENTRAL AND SOUTH CENTRAL TEXAS

CITY           SKY/WX    TMP DP  RH WIND       PRES   REMARKS
AUSTIN/BERGSTM LGT RAIN  62  62 100 N5        30.01R FOG
WACO           CLOUDY    46  41  82 N21       30.12R WCI  38
HILLSBORO      CLOUDY    46  38  76 NW23G35   30.13R WCI  37
TEMPLE         CLOUDY    46  37  71 N18G28    30.09R WCI  39
KILLEEN-GRAY   CLOUDY    45  39  79 N30G36    30.10R WCI  36
FORT HOOD      CLOUDY    46  40  80 N24       30.10R WCI  38
GEORGETOWN     CLOUDY    54  46  76 N21G26    30.05R
LAGO VISTA     CLOUDY    52  49  91 N16G25    30.04R
SAN MARCOS     CLOUDY    63  61  94 N7        30.00R FOG
NEW BRAUNFELS  CLOUDY    65  63  93 NE6       29.98R FOG
RANDOLPH AFB   PTCLDY    63  61  94 N3        29.99R FOG
SAN ANTONIO    CLOUDY    64  63  96 NE5       29.99R FOG
STINSON        CLOUDY    64  63  96 N3        29.97R FOG
PLEASANTON     NOT AVBL
LA GRANGE      DRIZZLE   68  67  97 CALM      29.99R
GIDDINGS       DRIZZLE   65  64  94 CALM      30.04R
$$

EAST TEXAS

CITY           SKY/WX    TMP DP  RH WIND       PRES   REMARKS
PARIS          CLOUDY    43  39  87 N22G28    30.11R WCI  34
CLARKSVILLE    NOT AVBL
TYLER          CLOUDY    62  60  93 SE5       30.01S FOG
LONGVIEW       FOG       61  59  93 E3        30.02R VSB 1/2
PALESTINE      LGT RAIN  63  63 100 CALM      30.02R
NACOGDOCHES      N/A    N/A N/A N/A MISG        N/A
$$

TEXAS HILL COUNTRY AND EDWARDS PLATEAU

CITY           SKY/WX    TMP DP  RH WIND       PRES   REMARKS
LLANO          CLOUDY    48  37  66 N7G18     30.14R
HORSESHOE BAY  RAIN     N/A N/A N/A NW12G17   30.08R
KERRVILLE        N/A     59  57  94 N17       30.01R
FREDERICKSBRG  CLOUDY    47  44  88 N21       30.04R WCI  40
ROCKSPRINGS    CLOUDY    46  37  71 N14G24    30.05R
HONDO          CLOUDY    62  61  96 NE6       30.00R FOG
UVALDE         DRIZZLE   59  59 100 NE6       29.98R
DEL RIO        PTCLDY    54  36  50 NW13      30.03R
$$

SOUTHEAST TEXAS

CITY           SKY/WX    TMP DP  RH WIND       PRES   REMARKS
COLLEGE STN    LGT RAIN  67  66  97 CALM      30.01R FOG
CALDWELL       CLOUDY    63  63 100 CALM      30.04R FOG
CROCKETT       CLOUDY    66  66 100 SE6       30.05R
BRENHAM        CLOUDY    70  69  96 CALM      30.01R FOG
HUNTSVILLE     CLOUDY    68  66  93 S6        30.01R
CONROE         CLOUDY    67  66  97 SE6       30.01R FOG
HOUSTON BUSH   CLOUDY    70  68  93 S9        30.00R
HOUSTON HOBBY  CLOUDY    70  69  97 S7        30.00R
PERLAND        CLOUDY    70  68  93 SE5       30.01R
WHARTON        CLOUDY    70  68  95 SE10      29.99R
$$

THE UPPER TEXAS COAST

CITY           SKY/WX    TMP DP  RH WIND       PRES   REMARKS
ORANGE         CLOUDY    65  65  99 E3        30.05R FOG
PORT ARTHUR    FOG       65  65 100 E6        30.02R VSB 1/2
GALVESTON      CLOUDY    67  67 100 SE12      30.00R
ANGLETON       CLOUDY    71  69  93 S15       29.99R
BAY CITY         N/A     71  71  99 SE9       29.98R
$$

TEXAS COASTAL BEND, RIO GRANDE PLAINS DEEP SOUTH TEXAS

CITY           SKY/WX    TMP DP  RH WIND       PRES   REMARKS
VICTORIA       CLOUDY    70  68  93 SE7       29.96R FOG
BEEVILLE       CLOUDY    69  69  99 S9        29.93R
ROCKPORT       MOCLDY    68  66  93 SE13      29.93R FOG
PORT ARANSAS   SUNNY     67  66  98 SE14      29.92S FOG
PORT LAVACA    CLOUDY    68  68  98 SE9       29.96R FOG
CORPUS CHRISTI MOCLDY    69  67  93 S16       29.92R FOG
KINGSVILLE NAS CLOUDY    69  69 100 SE9       29.92R
COTULLA        NOT AVBL
LAREDO         CLOUDY    61  59  94 NW3       29.98
BROWNSVILLE    MOCLDY    71  68  90 S12       29.95R
PORT ISABEL    MOCLDY    70  68  93 SE10      29.94R FOG
HEBBRONVILLE   CLOUDY    66  64  93 S9        29.93R
MCALLEN        MOCLDY    68  65  90 SE12      29.93R
WESLACO        PTCLDY    69  65  88 S10       29.92R FOG
FALFURRIAS     CLOUDY    71  66  85 S13G20    29.91R
EDINBURG       CLOUDY    71  66  84 SE13G18   29.92R
$$



USA.gov is the U.S. government's official web portal to all federal, state and local government web resources and services.